Location: Saint-Hippolyte
(43.6394°N, 4.7559°E)
Time: 15:21:21
(UTC+00:00)

USA 308 - Pass Details

Date: 24 October 2020
Orbit: 571 x 578 km, 54.0° (Epoch: 23 November)

Event Time Altitude Azimuth Distance (km) Brightness Sun altitude
Rises 18:31:13 0° 306° (NW) 2,786 7.4 -20.2°
Reaches altitude 10° 18:33:46 10° 319° (NW) 1,885 6.1 -20.7°
Maximum altitude 18:37:26 27° 17° (NNE) 1,129 4.2 -21.4°
Enters shadow 18:37:28 27° 18° (NNE) 1,129 4.2 -21.4°
